Location: Zagreb
(45.8000°N, 16.0000°E)
Time: 19:47:42
(UTC+02:00)

Explorer 7 - Pass Details

Date: 20 July 2024
Orbit: 445 x 571 km, 50.3° (Epoch: 14 June)

Event Time Altitude Azimuth Distance (km) Brightness Sun altitude
Exits shadow 00:36:15 11° 89° (E) 1,888 9.5 -23.3°
Drops below altitude 10° 00:36:30 10° 86° (E) 1,962 9.6 -23.3°
Enters shadow 01:40:20 -55° 241° (WSW) 11,080 13.4 -23.0°
Maximum altitude 02:12:03 83° 153° (SSE) 618 6.9 -21.7°
